Flag for U.S.A. Weather past 2 weeks in Inglewood, California, U.S.A.

Now
70 °F

Clear.


Feels Like: 70 °F
Forecast: 66 / 79 °F
Wind: No wind

Location: Hawthorne Municipal Airport

Current Time: Sep 2, 2014 at 3:03:23 AM

Latest Report: Sep 2, 2014 at 1:53 AM


Visibility: 10 mi

Pressure: 29.83 "Hg

Humidity: 81%

Dew point: 64 °F

Location of InglewoodLocation

Historic Weather in Inglewood — Graph

°F

Inglewood temperature yesterday

Maximum temperature yesterday: 81 °F (at 1:53 PM)
Minimum temperature yesterday: 71 °F (at 4:53 AM)
Average temperature yesterday: 75 °F

Past Weeks' High & Low Weather Summary

 TemperatureHumidityPressure
High86 °F (Aug 27, 12:53 PM)90% (Aug 30, 2:53 AM)30.03 "Hg (Aug 30, 2:53 AM)
Low66 °F (Aug 26, 4:53 AM)18% (Aug 28, 4:53 PM)29.74 "Hg (Aug 30, 5:53 PM)
Average73 °F70%29.89 "Hg
* Reported Aug 18 1:53 AM — Sep 2 1:53 AM, Inglewood, Weather by CustomWeather, © 2014

Note: Actual official high and low records may vary slightly from our data, if they occured in-between our weather recording intervals... More about our weather records

Advertising

Inglewood weather history for previous 24 hours

 ConditionsComfort  
Time TempWeatherWind HumidityBarometerVisibility
1:53 AM
Sep 2
70 °FClear.No wind81%29.83 "Hg10 mi
12:53 AM70 °FClear.5 mph81%29.83 "Hg10 mi
11:53 PM
Sep 1
71 °FPassing clouds.3 mph84%29.82 "Hg10 mi
10:53 PM71 °FPassing clouds.No wind84%29.82 "Hg10 mi
9:53 PM71 °FPassing clouds.No wind84%29.82 "Hg10 mi
8:53 PM71 °FClear.5 mph84%29.81 "Hg10 mi
7:53 PM73 °FSunny.6 mph79%29.78 "Hg10 mi
6:53 PM75 °FSunny.6 mph74%29.77 "Hg10 mi
5:53 PM77 °FSunny.8 mph71%29.77 "Hg10 mi
4:53 PM79 °FSunny.8 mph67%29.77 "Hg10 mi
3:53 PM81 °FSunny.7 mph58%29.78 "Hg10 mi
2:53 PM81 °FSunny.9 mph58%29.79 "Hg10 mi
1:53 PM81 °FSunny.7 mph56%29.80 "Hg10 mi
12:53 PM80 °FSunny.10 mph58%29.81 "Hg10 mi
11:53 AM80 °FSunny.7 mph58%29.83 "Hg10 mi
10:53 AM79 °FSunny.6 mph58%29.84 "Hg10 mi
9:53 AM75 °FSunny.3 mph69%29.84 "Hg10 mi
8:53 AM73 °FScattered clouds.No wind76%29.83 "Hg10 mi
7:53 AM71 °FOvercast.No wind78%29.83 "Hg10 mi
6:53 AM71 °FOvercast.No wind78%29.82 "Hg10 mi
5:53 AM71 °FOvercast.3 mph78%29.81 "Hg10 mi
4:53 AM71 °FPassing clouds.No wind81%29.80 "Hg10 mi
3:53 AM72 °FClear.5 mph78%29.79 "Hg10 mi
Weather by CustomWeather, © 2014

See weather overviewHow to use our weather pages